| time (UTC) | temp F | wind direction | speed MPH | gust MPH | rain 1hr in | rain 24hr in | rain mn in | humidity % | barometer mb |
| 20260505063045 | 51 | 278 | 5.0 | 10.0 | 0.00 | 0.02 | 0.00 | 91 | 1009.0 |
| 20260505061542 | 51 | 257 | 3.0 | 13.0 | 0.00 | 0.02 | 0.00 | 92 | 1009.1 |
| 20260505060038 | 51 | 235 | 4.0 | 9.0 | 0.00 | 0.02 | 0.00 | 94 | 1009.1 |
| 20260505054535 | 50 | 282 | 2.0 | 5.0 | 0.00 | 0.02 | 0.00 | 96 | 1009.0 |
| 20260505053032 | 49 | 67 | 0.0 | 3.0 | 0.00 | 0.02 | 0.00 | 95 | 1009.0 |
| 20260505051535 | 49 | 355 | 1.0 | 5.0 | 0.00 | 0.02 | 0.00 | 95 | 1008.9 |
| 20260505041538 | 47 | 228 | 0.0 | 0.0 | 0.00 | 0.02 | 0.00 | 95 | 1009.1 |
| 20260505040021 | 47 | 228 | 0.0 | 0.0 | 0.00 | 0.02 | 0.00 | 96 | 1009.0 |
| 20260505034519 | 47 | 212 | 0.0 | 0.0 | 0.00 | 0.02 | 0.00 | 96 | 1009.0 |
| 20260505033019 | 47 | 211 | 0.0 | 0.0 | 0.00 | 0.02 | 0.00 | 96 | 1009.0 |
| 20260505030015 | 46 | 212 | 2.0 | 3.0 | 0.00 | 0.02 | 0.00 | 95 | 1009.2 |
| 20260505024513 | 46 | 212 | 0.0 | 3.0 | 0.00 | 0.02 | 0.00 | 95 | 1009.4 |
| 20260505023013 | 46 | 212 | 0.0 | 2.0 | 0.00 | 0.02 | 0.00 | 95 | 1009.4 |
| 20260505021510 | 46 | 212 | 1.0 | 2.0 | 0.00 | 0.02 | 0.00 | 94 | 1009.6 |
| 20260505020016 | 46 | 212 | 0.0 | 4.0 | 0.00 | 0.02 | 0.00 | 95 | 1009.8 |
| 20260505014510 | 47 | 199 | 0.0 | 3.0 | 0.00 | 0.02 | 0.00 | 95 | 1009.7 |
| 20260505013008 | 47 | 205 | 0.0 | 0.0 | 0.00 | 0.02 | 0.00 | 95 | 1009.7 |
| 20260505011509 | 46 | 205 | 0.0 | 0.0 | 0.00 | 0.02 | 0.00 | 95 | 1010.0 |
| 20260505010005 | 46 | 205 | 0.0 | 0.0 | 0.00 | 0.02 | 0.00 | 95 | 1010.0 |
| 20260505004502 | 46 | 205 | 0.0 | 3.0 | 0.00 | 0.02 | 0.00 | 95 | 1010.4 |
| 20260505003002 | 46 | 205 | 0.0 | 3.0 | 0.00 | 0.02 | 0.00 | 94 | 1010.6 |
| 20260505001632 | 45 | 205 | 0.0 | 2.0 | 0.00 | 0.02 | 0.00 | 94 | 1010.9 |
| 20260505000137 | 45 | 205 | 0.0 | 2.0 | 0.00 | 0.02 | 0.00 | 93 | 1011.1 |
| 20260504234612 | 46 | 205 | 0.0 | 1.0 | 0.00 | 0.02 | 0.00 | 93 | 1011.2 |
| 20260504233106 | 46 | 205 | 1.0 | 3.0 | 0.00 | 0.02 | 0.00 | 92 | 1011.3 |
| 20260504231553 | 46 | 205 | 0.0 | 1.0 | 0.00 | 0.02 | 0.00 | 93 | 1011.5 |
| 20260504230052 | 46 | 204 | 3.0 | 4.0 | 0.00 | 0.02 | 0.00 | 91 | 1011.6 |
| 20260504224605 | 47 | 124 | 0.0 | 1.0 | 0.00 | 0.02 | 0.00 | 90 | 1011.5 |
| 20260504223047 | 47 | 181 | 0.0 | 2.0 | 0.00 | 0.02 | 0.00 | 91 | 1011.7 |
| 20260504221543 | 48 | 182 | 0.0 | 3.0 | 0.00 | 0.02 | 0.00 | 90 | 1011.9 |
| 20260504220041 | 48 | 181 | 1.0 | 3.0 | 0.00 | 0.02 | 0.00 | 88 | 1011.8 |
| 20260504214537 | 49 | 181 | 0.0 | 2.0 | 0.00 | 0.02 | 0.02 | 88 | 1011.9 |
| 20260504213054 | 50 | 202 | 0.0 | 1.0 | 0.00 | 0.02 | 0.02 | 87 | 1012.0 |
| 20260504211537 | 51 | 320 | 0.0 | 3.0 | 0.00 | 0.02 | 0.02 | 87 | 1012.3 |
| 20260504210035 | 51 | 296 | 0.0 | 3.0 | 0.00 | 0.02 | 0.02 | 87 | 1012.4 |
| 20260504204534 | 51 | 236 | 1.0 | 3.0 | 0.00 | 0.02 | 0.02 | 88 | 1012.5 |
| 20260504203036 | 51 | 236 | 0.0 | 2.0 | 0.00 | 0.02 | 0.02 | 87 | 1012.5 |
| 20260504201535 | 51 | 123 | 0.0 | 1.0 | 0.00 | 0.02 | 0.02 | 87 | 1012.4 |
| 20260504200033 | 52 | 120 | 0.0 | 4.0 | 0.00 | 0.02 | 0.02 | 87 | 1012.4 |
| 20260504194537 | 52 | 220 | 0.0 | 3.0 | 0.00 | 0.02 | 0.02 | 87 | 1012.4 |
| 20260504193037 | 52 | 207 | 2.0 | 9.0 | 0.00 | 0.02 | 0.02 | 88 | 1012.3 |
| 20260504191532 | 52 | 230 | 7.0 | 12.0 | 0.00 | 0.02 | 0.02 | 88 | 1012.1 |
| 20260504190031 | 52 | 255 | 5.0 | 10.0 | 0.00 | 0.02 | 0.02 | 89 | 1012.2 |
| 20260504184532 | 52 | 231 | 7.0 | 13.0 | 0.00 | 0.02 | 0.02 | 88 | 1012.1 |
| 20260504183030 | 52 | 246 | 10.0 | 14.0 | 0.00 | 0.02 | 0.02 | 89 | 1012.0 |
| 20260504181529 | 52 | 242 | 11.0 | 15.0 | 0.00 | 0.02 | 0.02 | 89 | 1012.2 |
| 20260504180028 | 52 | 250 | 8.0 | 14.0 | 0.00 | 0.02 | 0.02 | 89 | 1012.1 |
| 20260504174528 | 53 | 230 | 8.0 | 15.0 | 0.00 | 0.02 | 0.02 | 89 | 1012.2 |
| 20260504173035 | 53 | 213 | 12.0 | 18.0 | 0.01 | 0.02 | 0.02 | 90 | 1012.3 |
| 20260504171526 | 53 | 243 | 14.0 | 20.0 | 0.01 | 0.02 | 0.02 | 90 | 1012.2 |
| 20260504160119 | 55 | 254 | 17.0 | 26.0 | 0.01 | 0.02 | 0.01 | 88 | 1012.3 |
| 20260504081518 | 61 | 68 | 1.0 | 6.0 | 0.00 | 0.12 | 0.00 | 78 | 1013.4 |